Miscellaneous Local Product
Issued by NWS North Platte, NE

Home | Current Version | Previous Version | Text Only | Print | Product List | Glossary On
Versions: 1 2 3 4 5 6 7 8 9 10 11 12 13 14 15 16 17 18 19 20 21 22 23 24 25 26 27 28 29 30 31 32 33 34 35 36 37 38 39 40 41 42 43 44 45 46 47 48 49 50
000
AXUS43 KLBF 242110
MISLBF


WESTERN AND NORTH CENTRAL NEBRASKA HOURLY WEATHER ROUNDUP
NATIONAL WEATHER SERVICE NORTH PLATTE NE
400 PM CDT WED AUG 24 2016

NOTE: "FAIR" INDICATES FEW OR NO CLOUDS BELOW 12,000 FEET WITH NO
SIGNIFICANT WEATHER AND/OR OBSTRUCTIONS TO VISIBILITY.

NOTE: STATIONS NOT REPORTING VARIABLES SUCH AS SKY/WEATHER OR
PRESSURE ARE PROVIDED BY RAWS AND APRS NETWORKS AND ARE NOT UNDER
NATIONAL WEATHER SERVICE QUALITY CONTROL.

...OBSERVATIONS IN AND NEAR THE EASTERN PANHANDLE OF NEBRASKA...

CITY           SKY/WX    TMP DP  RH WIND       PRES   REMARKS
PINE RIDGE     PTSUNNY   74  44  34 S3        30.15F
CHADRON        CLOUDY    76  41  28 NE5       30.14F
ALLIANCE       MOSUNNY   71  41  33 MISG      30.16F
SIDNEY         CLOUDY    71  38  29 VRB6      30.20F
$$

...OBSERVATIONS IN NORTHERN NEBRASKA AND FAR SOUTHERN SOUTH DAKOTA...

CITY           SKY/WX    TMP DP  RH WIND       PRES   REMARKS
WINNER         FAIR      73  51  46 NW9       30.10S
VALENTINE      CLOUDY    70  47  43 VRB5      30.14R
THEDFORD       CLOUDY    74  46  36 NE9       30.15F
AINSWORTH      CLOUDY    69  52  55 N6        30.15S
O`NEILL        PTSUNNY   79  47  32 N9        30.10F
ORD            CLOUDY    73  51  46 N6        30.11R
BROKEN BOW     CLOUDY    77  50  38 NE8       30.13S
$$

...OBSERVATIONS IN SOUTHWEST NEBRASKA AND FAR NORTHEAST COLORADO...

CITY           SKY/WX    TMP DP  RH WIND       PRES   REMARKS
WRAY           FAIR      77  32  19 NE16      30.16S
HOLYOKE        FAIR      79  37  22 E10G17    30.17S
IMPERIAL       PTSUNNY   78  37  22 E12       30.14F
OGALLALA       CLOUDY    78  33  19 E10       30.15F
NORTH PLATTE   CLOUDY    78  46  32 NE7       30.13F
MCCOOK         CLOUDY    77  43  29 NE16      30.12F
LEXINGTON      PTSUNNY   79  45  29 NE10G17   30.12S
$$

...OBSERVATIONS IN CENTRAL LINCOLN COUNTY AREA...

CITY           SKY/WX    TMP DP  RH WIND       PRES   REMARKS
N.P. AIRPORT   CLOUDY    78  46  32 NE7       30.13F
$$

...SOME OBSERVATIONS FROM AROUND THE REGION...

CITY           SKY/WX    TMP DP  RH WIND       PRES   REMARKS
DENVER         LGT RAIN  59  52  77 W8        30.26F
LARAMIE        CLOUDY    62  39  42 SE16G29   30.23R
CHEYENNE       CLOUDY    66  43  43 S22G30    30.22F
SCOTTSBLUFF    MOSUNNY   72  45  37 E9        30.16F
RAPID CITY     MOSUNNY   73  45  36 NE7       30.14F
BISMARCK       PTSUNNY   73  47  39 W17G24    30.01S
PIERRE         CLOUDY    77  46  33 NW16      30.06F
SIOUX FALLS    CLOUDY    73  58  59 N12       30.04F
OMAHA          CLOUDY    75  62  64 NW7       30.02R
GRAND ISLAND   CLOUDY    71  57  61 N6        30.11R
KANSAS CITY    PTSUNNY   83  69  62 SW12      30.00R
WICHITA        PTSUNNY   91  66  43 SE6       29.95F HX  93
OKLAHOMA CITY  MOSUNNY   95  65  37 S20G26    29.99F HX  97
DALLAS         MOSUNNY   93  67  42 S17G25    30.03F HX  96
AMARILLO       PTSUNNY   87  57  35 S17       30.07F
DODGE CITY     CLOUDY    83  60  45 S6        30.01S
HAYS           CLOUDY    73  55  53 E13       30.07R
GOODLAND       CLOUDY    70  43  37 E15       30.16R
$$




USA.gov is the U.S. government's official web portal to all federal, state and local government web resources and services.